カタログに戻る

STARLINK-36242

運用中通信VLEO
NORAD 68958·PAYLOAD·🇺🇸 United States

打ち上げ May 1, 2026 から Cape Canaveral Space Force Station

Loading…

次のパス (今後24時間)

TLE

最新Source: CelesTrak SupGP

元期: Sep 14, 2026, 21:06 UTC

1 68958C 26099H   26257.87965278  .00070826  00000+0  20909-2 0  2577
2 68958  53.1576 102.1680 0001286  77.2423 154.2093 15.34381162    14

AllMySatでSTARLINK-36242をリアルタイム追跡

Download on the App Store